Location: Potawatomi Wildlife Park
(41.2308°N, 86.1050°W)
Time: 04:07:49
(UTC-04:00)

Daily predictions for brighter satellites

Satellite Brightness Start Highest point End
(mag) Time Altitude Azimuth Time Altitude Azimuth Time Altitude Azimuth
Cosmos 1346 4.1 00:04:05 41° NNE 00:04:05 41° NNE 00:06:14 10° NNE
Nadezhda 1 Rocket 3.9 00:03:57 10° N 00:10:03 84° W 00:12:27 40° S
SL-16 R/B 3.6 00:06:15 10° N 00:11:11 29° NE 00:13:40 21° E
Lacrosse 4 Rocket 3.6 00:09:38 10° N 00:12:50 19° NE 00:14:35 16° ENE
Cosmos 1869 3.2 00:09:11 10° N 00:13:15 71° E 00:13:24 70° ESE
NOSS 3-1 (A) 3.6 00:07:35 10° SW 00:13:27 73° NW 00:20:01 10° NNE
COSMOS 2428 3.6 00:11:22 10° NW 00:16:38 39° WSW 00:18:35 30° SSW
Cosmos 1745 Rocket 4.4 00:17:11 26° SSW 00:20:45 59° W 00:26:53 10° N
Cosmos 1455 2.2 00:18:10 10° NNW 00:21:56 70° W 00:21:56 70° W
Cosmos 2297 Rocket 2.3 00:25:45 51° SE 00:26:38 57° ESE 00:32:11 10° NNE
DELTA 2 R/B (1) 4.4 00:22:24 10° W 00:26:42 32° SW 00:26:42 32° SW
Cosmos 1709 Rocket 3.9 00:27:29 47° SSE 00:29:16 73° E 00:35:22 10° NNE
H-2A R/B 4.0 00:27:44 10° NE 00:30:32 25° ENE 00:30:32 25° ENE
Cosmos 1470 Rocket 4.5 00:31:55 34° WSW 00:33:04 41° WNW 00:37:11 10° N
Cosmos 2221 Rocket 3.9 00:28:39 10° N 00:33:07 53° E 00:33:22 52° E
Cosmos 192 4.2 00:28:35 10° NNW 00:33:32 80° ENE 00:34:11 66° SE
COS B Rocket 3.6 00:32:05 10° N 00:35:12 54° NE 00:35:12 54° NE
ATLAS 2AS CENTAUR R/B 2.9 00:32:38 37° S 00:35:55 69° ESE 00:43:55 10° NE
Cosmos 1703 Rocket 3.7 00:32:38 10° N 00:36:57 61° E 00:37:00 60° E
Cosmos 2219 Rocket 2.5 00:31:46 10° NNW 00:37:12 54° WSW 00:38:24 45° SSW
GEOS 3 Rocket 3.8 00:35:40 43° ESE 00:37:14 64° NE 00:42:23 10° NNW
Cosmos 1937 Rocket 4.5 00:36:51 21° SW 00:39:54 43° WNW 00:44:52 10° N
COSMOS 2455 3.4 00:34:04 10° NNW 00:39:56 51° NE 00:42:07 35° ESE
Okean 1-7 3.7 00:38:17 10° N 00:42:15 41° ENE 00:42:15 41° ENE
H-2A R/B 3.7 00:41:19 20° SW 00:43:17 25° W 00:47:42 10° NW
Cosmos 2181 Rocket 4.0 00:42:39 10° N 00:49:03 88° E 00:50:50 51° S
Cosmos 1980 3.9 00:45:20 10° NNW 00:50:53 58° WSW 00:51:50 51° SSW
Cosmos 1269 Rocket 3.9 00:50:10 10° NNW 00:55:31 81° ENE 00:56:14 66° SE
Cosmos 389 Rocket 3.7 00:52:57 10° N 00:55:35 37° NE 00:55:35 37° NE
Meteor 2-3 Rocket 4.1 00:57:41 46° ESE 00:58:22 48° E 01:03:52 10° NNE
ATLAS 3B R/B 2.8 00:52:44 10° NNW 00:59:45 69° NE 01:02:13 41° ESE
Cosmos 1933 3.7 00:56:35 10° NNW 01:00:15 60° WNW 01:00:15 60° WNW
Cosmos 2184 Rocket 4.2 00:59:55 47° SE 01:01:06 55° E 01:07:07 10° NNE
Helios 1A Rocket 4.4 00:59:09 10° NE 01:01:59 28° ENE 01:01:59 28° ENE
Cosmos 2237 Rocket 2.6 00:58:49 10° NW 01:04:18 49° WSW 01:05:04 46° SW
Cosmos 2082 4.4 01:03:38 29° WSW 01:06:18 50° WNW 01:11:54 10° NNE
FALCON 9 R/B 2.9 00:55:11 10° W 01:09:14 48° SSW 01:09:35 48° S
Cosmos 1892 4.4 01:11:42 25° ENE 01:11:42 25° ENE 01:13:57 10° NNE
NOSS 2-3 (E) 4.2 01:11:18 51° E 01:11:18 51° E 01:16:15 10° NE
CZ-4B R/B 2.6 01:17:43 44° N 01:17:43 44° N 01:20:12 10° N
H-2A ROCKET BODY 4.2 00:28:18 10° W 01:19:09 49° SSW 01:23:23 37° SSE
Cosmos 1125 Rocket 3.9 01:22:54 47° WSW 01:24:05 57° WNW 01:29:20 10° NNE
Cosmos 1782 4.4 01:20:55 10° NNE 01:23:58 26° ENE 01:23:58 26° ENE
Cosmos 1689 Rocket 3.9 01:26:12 35° NNW 01:26:12 35° NNW 01:28:14 10° NNW
Cosmos 1048 Rocket 4.0 01:21:02 10° NNW 01:26:21 68° WSW 01:26:43 66° SW
In-Cosmos 22 Rocket 4.1 01:28:10 66° SSW 01:29:00 85° W 01:34:48 10° N
Cosmos 1340 Rocket 3.8 01:32:25 40° NE 01:32:25 40° NE 01:35:17 10° NNE
Aureole 2 Rocket 4.3 01:29:28 10° N 01:31:09 27° NNE 01:31:09 27° NNE
SeaSat 1 3.7 01:38:15 28° W 01:38:15 28° W 01:42:06 10° NW
NOSS 2-3 (C) 3.8 01:37:40 80° SSW 01:37:59 88° ESE 01:43:40 10° NE
Cosmos 44 Rocket 3.3 01:39:15 74° ESE 01:39:15 74° ESE 01:44:28 10° NE
Cosmos 2227 Rocket 4.0 01:39:31 13° WSW 01:43:21 26° NW 01:48:03 10° N
ALOS 2 3.4 01:44:00 42° W 01:44:00 42° W 01:47:44 10° NNW
Cosmos 1733 Rocket 3.2 01:46:04 69° NE 01:46:04 69° NE 01:50:09 10° NNE
TSX-5 4.5 01:46:47 69° SW 01:47:28 83° WNW 01:53:58 10° NNE
Cosmos 2333 Rocket 4.0 01:45:07 10° WNW 01:48:53 18° W 01:49:11 18° WSW
Coronas F rocket 4.4 01:53:28 16° NNE 01:53:28 16° NNE 01:54:10 10° NNE
Lacrosse 4 Rocket 2.3 01:47:32 10° NW 01:50:55 42° WNW 01:50:55 42° WNW
Cosmos 2263 Rocket 3.9 01:51:58 19° ESE 01:52:19 19° E 01:56:14 10° NE
SL-16 R/B 2.8 01:50:06 10° NW 01:55:25 42° WSW 01:55:32 42° WSW
Cosmos 2227 4.0 01:55:02 71° S 01:55:37 81° ESE 02:01:19 10° NNE
Meteor 1-27 Rocket 4.4 01:50:12 10° N 01:55:52 48° ENE 01:57:21 39° ESE
BREEZE-M DEB (TANK) 2.8 01:50:48 10° WNW 01:57:16 60° NNE 01:57:18 60° NNE
NOSS 2-3 (D) 4.1 01:58:18 56° WSW 01:59:09 67° NW 02:04:50 10° NNE
Cosmos 1356 Rocket 3.8 02:03:04 59° NNE 02:03:04 59° NNE 02:06:25 10° N
ASTEX 1 4.1 01:59:29 10° N 02:04:06 42° WNW 02:04:30 41° W
Cosmos 1862 4.5 02:06:05 35° ENE 02:06:05 35° ENE 02:09:12 10° NNE
H-2A R/B 4.1 02:03:20 10° NNW 02:06:48 26° WNW 02:07:11 25° WNW
Cosmos 158 Rocket 4.2 02:02:44 10° NNW 02:07:53 55° WSW 02:07:53 55° WSW
Nadezhda 3 Rocket 3.9 02:01:43 10° N 02:07:58 89° E 02:09:17 59° S
CZ-3 Stage 3 4.1 01:45:31 10° W 02:09:45 42° SSW 02:09:53 42° SSW
Okean 2 Rocket 4.4 02:10:09 30° E 02:10:15 30° E 02:14:12 10° NNE
Cosmos 2297 Rocket 4.1 02:07:31 13° W 02:11:04 23° NW 02:15:29 10° N
CZ-2C R/B 3.3 02:11:35 55° SE 02:12:51 76° ENE 02:18:31 10° N
Cosmos 1238 Rocket 3.4 02:09:13 10° N 02:12:49 53° NE 02:12:49 53° NE
Meteor 2-6 Rocket 4.2 02:13:51 10° NNW 02:19:41 79° W 02:20:38 63° SSW
CZ-4C R/B 3.3 02:12:45 10° NNW 02:19:44 60° NE 02:26:09 15° SE
Cosmos 1782 Rocket 4.2 02:19:57 44° E 02:19:57 44° E 02:24:00 10° NNE
Cosmos 1943 3.8 02:15:45 10° NNW 02:21:19 52° ENE 02:23:36 33° ESE
CZ-2C R/B 2.7 02:17:45 10° N 02:22:56 64° WNW 02:23:38 57° WSW
COSMOS 2455 4.0 02:20:38 10° NW 02:25:14 26° WSW 02:25:14 26° WSW
Cosmos 2251 Rocket 3.8 02:21:08 10° NNW 02:26:16 51° WSW 02:26:17 51° WSW
ATLAS 2AS CENTAUR R/B 4.4 02:20:42 10° WSW 02:27:36 34° NW 02:34:52 10° NNE
Meteor 2-10 Rocket 4.2 02:23:13 10° NNW 02:28:26 43° W 02:28:58 42° WSW
Cosmos 1606 3.2 02:24:57 10° N 02:28:05 58° N 02:28:05 58° N
Cosmos 1603 3.7 02:23:23 10° NNW 02:28:58 59° WSW 02:29:23 57° SW
Cosmos 2154 Rocket 4.3 02:32:33 45° SW 02:34:06 56° W 02:40:19 10° N
Cosmos 1674 Rocket 4.4 02:30:11 10° NNW 02:33:54 40° WNW 02:33:54 40° WNW
MOS 1-B Rocket 4.4 02:38:15 39° WSW 02:38:47 40° W 02:44:04 10° NNW
PSLV R/B 4.2 02:36:31 10° NNE 02:40:31 42° E 02:40:31 42° E
Cosmos 1975 Rocket 3.0 02:38:42 10° N 02:43:07 76° E 02:43:12 75° E
BREEZE-M DEB (TANK) 4.2 02:25:42 10° WSW 02:44:34 73° NNW 02:49:11 10° NE
Cosmos 1242 Rocket 4.4 02:43:47 10° NNE 02:46:38 23° ENE 02:47:00 22° E
Cosmos 1607 3.8 02:40:49 10° NW 02:46:58 74° WSW 02:48:30 52° S
Cosmos 1908 Rocket 4.0 02:49:24 47° WNW 02:49:24 47° WNW 02:53:32 10° N
ATLAS 3B R/B 3.9 02:44:39 10° WNW 02:49:27 22° WSW 02:49:27 22° WSW
Cosmos 921 Rocket 3.6 02:51:16 42° WNW 02:51:16 42° WNW 02:55:17 10° N
USA 238 DEB 3.9 02:45:42 10° NW 02:52:24 49° WSW 02:53:38 45° SW
USA 238 3.9 02:45:47 10° NW 02:52:30 50° WSW 02:53:46 45° SSW
Cosmos 44 3.8 02:53:21 47° WSW 02:54:40 61° NW 03:00:06 10° NNE
NPP 4.4 02:59:58 10° NNE 03:05:06 43° E 03:06:51 33° SE
Cosmos 2151 Rocket 3.9 03:07:47 49° SE 03:08:29 55° E 03:12:50 10° NNE
BREEZE-M TANK 2.7 03:04:45 10° WNW 03:08:55 51° N 03:11:22 10° E
SL-08 R/B 4.4 03:07:43 47° SSW 03:09:39 78° W 03:15:57 10° N
Iridium 4 Rocket 3.7 03:06:32 10° N 03:11:05 59° E 03:12:32 41° SE
Cosmos 1184 Rocket 3.3 03:13:16 61° NNE 03:13:16 61° NNE 03:16:08 10° NNE
USA 234 3.2 03:07:10 10° SE 03:13:44 87° SW 03:20:19 10° NW
Abrixas rocket 4.0 03:15:16 25° E 03:15:16 25° E 03:17:00 10° ENE
RESURS DK-1 2.6 03:14:33 56° SE 03:14:45 56° ESE 03:18:51 10° NNE
Cosmos 1825 3.4 03:17:09 31° WNW 03:17:09 31° WNW 03:20:18 10° NNW
ERS-2 3.1 03:15:39 10° NNE 03:19:08 37° E 03:19:28 36° ESE
Cosmos 1408 4.1 03:24:16 26° WNW 03:24:16 26° WNW 03:27:17 10° NNW
NOSS 3-2 (C) 3.9 03:18:49 10° NW 03:26:23 81° WSW 03:34:27 10° SSE
CENTAUR R/B 4.4 03:20:56 10° NNW 03:28:07 40° NE 03:35:45 10° ESE
CZ-2D R/B 4.3 03:26:22 10° NE 03:30:09 19° E 03:33:55 10° SE
Cosmos 2218 Rocket 4.3 03:28:46 37° SW 03:30:55 52° WNW 03:37:05 10° N
Cosmos 1844 Rocket 4.1 03:31:31 19° SSE 03:34:21 29° ESE 03:39:11 10° NE
Cosmos 1339 Rocket 4.3 03:29:10 10° N 03:35:15 78° W 03:37:57 35° S
GP-B 3.8 03:30:57 10° NNE 03:35:17 49° E 03:37:07 30° SSE
Cosmos 2263 Rocket 2.4 03:33:39 38° SW 03:35:43 59° WNW 03:41:21 10° NNE
SL-24 DEB 4.4 03:32:10 10° N 03:36:48 68° E 03:38:28 39° SSE
Meteor 1-25 Rocket 4.4 03:35:21 34° S 03:37:52 72° E 03:43:37 10° NNE
COSMOS 2406 3.8 03:34:46 10° NNW 03:40:29 58° ENE 03:46:09 10° SE
SL-08 R/B 3.3 03:41:41 36° S 03:43:44 84° WSW 03:48:42 10° NNW
Cosmos 1190 Rocket 4.1 03:38:36 10° NNW 03:43:51 77° ENE 03:47:22 21° SSE
NOSS 3-4 (A) 4.0 03:44:56 27° WSW 03:48:24 54° NW 03:54:52 10° NNE
NOSS 3-4 (C) 4.0 03:45:02 27° WSW 03:48:29 55° NW 03:54:58 10° NNE
Cosmos 1371 Rocket 4.3 03:47:23 36° SW 03:49:20 56° WNW 03:54:38 10° NNE
Cosmos 2056 Rocket 3.5 03:48:43 39° SW 03:50:43 74° WNW 03:56:01 10° NNE
IRS-1C 4.2 03:45:28 10° NNE 03:50:50 76° ESE 03:53:23 32° S
Cosmos 2278 Rocket 4.2 03:46:57 10° SE 03:50:54 20° E 03:54:50 10° NE
NOSS 3-2 (A) 4.2 03:43:56 10° NW 03:51:12 50° WSW 03:56:22 22° S
Spot 4 Rocket 4.3 03:51:19 10° NNE 03:56:26 61° E 03:59:14 26° S
Tiangong 1 2.0 03:59:17 36° SE 03:59:17 36° SE 04:01:16 10° ESE
Cosmos 407 Rocket 3.4 03:56:27 10° NNW 04:01:38 88° ENE 04:05:49 16° SSE
AQUA 3.9 03:59:25 10° N 04:04:07 63° WNW 04:06:03 34° SW
Cosmos 1943 4.4 04:00:41 10° NW 04:04:56 22° W 04:05:22 22° WSW
Cosmos 676 Rocket 4.1 04:01:51 10° NNW 04:07:04 74° ENE 04:12:13 10° SSE
CZ-4C R/B 3.6 04:01:47 10° NW 04:08:08 33° WSW 04:11:13 25° SSW
SAR-Lupe-3 4.4 04:09:51 37° S 04:11:11 81° WSW 04:14:46 10° NNW
SL-27 R/B 2.5 04:08:00 10° NNW 04:11:40 83° ENE 04:13:49 23° SSE
USA 161 1.3 04:16:08 56° S 04:16:38 86° W 04:19:32 10° NNW
IRS-1D 3.9 04:12:20 10° NNE 04:17:24 60° E 04:20:58 19° S
Meteor 2-21 4.4 04:13:34 23° S 04:17:31 86° W 04:23:39 10° N
Cosmos 724 4.4 04:11:42 10° NNW 04:17:51 86° ENE 04:24:03 10° SSE
Gbstr 26 Del rocket 3.4 04:16:43 30° S 04:17:58 40° SE 04:21:30 10° ENE
UNKNOWN OBJECT B 4.5 04:15:56 10° NNE 04:19:35 31° E 04:23:04 11° SSE
OTV 4 2.3 04:22:22 18° SE 04:22:22 18° SE 04:23:25 10° SE
Cosmos 1242 Rocket 4.3 04:19:06 10° NW 04:21:11 17° W 04:21:11 17° W
H-2A R/B 4.3 04:18:33 22° SSW 04:21:42 26° S 04:43:08 10° SE
Cosmos 1867 4.3 04:17:05 10° NW 04:21:56 33° WSW 04:23:54 25° SSW
Resurs 1-4 Rocket 2.7 04:16:47 10° NNE 04:22:00 54° E 04:26:23 14° S
Cosmos 1300 Rocket 3.8 04:23:44 29° SW 04:25:35 50° W 04:29:51 10° N
BREEZE-M DEB (TANK) 4.4 04:23:18 10° WNW 04:28:18 24° WSW 04:28:18 24° WSW
Cosmos 1954 Rocket 3.9 04:30:35 10° NNW 04:35:46 80° WSW 04:40:56 10° SSE
NOSS 2-2 (E) 3.9 04:35:27 22° SSW 04:38:03 59° ESE 04:42:47 10° NE
Cosmos 1892 Rocket 4.3 04:34:23 10° N 04:38:38 52° E 04:42:52 10° SSE
Meteor 1-11 Rocket 3.8 04:35:08 17° S 04:39:51 84° WNW 04:45:51 10° N
Cosmos 1633 3.0 04:37:16 16° S 04:40:00 59° E 04:43:35 10° NNE
EO 1 Del DPAF 3.2 04:36:39 13° S 04:40:08 82° WSW 04:44:03 10° NNW
Cosmos 1934 Rocket 4.1 04:39:43 18° SSW 04:44:28 63° W 04:50:37 10° N
SME Rocket 2.8 04:41:01 10° SSE 04:44:46 87° ENE 04:48:47 10° NNW
Meteor 1-13 Rocket 4.3 04:40:23 10° NNW 04:45:58 61° W 04:51:38 10° S
Okean 1 4.5 04:43:29 10° NNW 04:46:51 26° W 04:48:23 20° SW
Cosmos 1812 4.2 04:45:40 10° NW 04:48:38 21° W 04:49:48 18° WSW
ADEOS 4.3 04:43:59 10° N 04:48:47 38° WNW 04:52:16 17° SW
Okean 1-7 Rocket 4.4 04:45:58 10° NNW 04:50:07 35° W 04:52:54 18° SW
Abrixas rocket 3.4 04:48:13 13° W 04:50:57 39° NNW 04:54:08 10° NE
USA 129 3.8 04:49:23 10° SE 04:51:17 29° ENE 04:53:12 10° N
Cosmos 1356 3.9 04:48:44 13° S 04:51:50 61° E 04:55:21 10° NNE
SL-16 R/B 2.5 04:45:40 10° S 04:51:52 67° WSW 04:58:05 10° NNW
ERS-2 4.3 04:50:28 10° NNW 04:52:37 15° WNW 04:54:19 12° W
Cosmos 1400 Rocket 3.0 04:49:38 12° S 04:53:08 67° E 04:57:02 10° NNE
ARIANE 5 R/B 2.7 04:49:53 10° N 04:54:44 54° WNW 04:58:39 16° SW
Cosmos 1452 Rocket 4.1 04:53:20 17° SW 04:57:02 44° WNW 05:02:04 10° N
USA 234 4.2 04:52:23 10° S 04:57:16 22° WSW 05:02:10 10° WNW
Cosmos 614 Rocket 4.3 04:53:26 10° NNW 04:58:37 69° ENE 05:03:42 10° SSE
COSMOS 2487 2.5 04:55:57 10° NNW 04:59:36 87° ENE 05:03:12 10° SSE
MTI 3.8 04:58:30 10° S 05:01:48 70° WSW 05:05:06 10° NNW
Okean O Rocket 2.2 04:58:34 10° NNE 05:02:51 54° E 05:07:05 10° S
Okean 1 Rocket 4.5 05:00:25 15° WSW 05:02:57 24° WNW 05:06:33 10° NNW
Cosmos 1420 Rocket 4.1 05:05:25 13° SSW 05:10:07 66° WNW 05:15:25 10° NNE
Meteor 1-23 Rocket 4.2 05:04:26 10° NNW 05:10:11 76° W 05:15:49 10° S
CZ-2D R/B 2.4 05:05:13 10° N 05:10:33 57° WNW 05:15:48 10° SSW
Cosmos 1605 Rocket 4.3 05:08:50 11° SSW 05:14:35 52° WNW 05:20:41 10° N
Okean 2 3.3 05:13:01 10° NNW 05:17:07 75° W 05:21:12 10° S
Cosmos 1315 Rocket 3.0 05:13:17 10° S 05:17:23 77° E 05:21:27 10° NNE
Cosmos 1844 Rocket 3.4 05:13:11 12° SW 05:18:03 40° WNW 05:23:24 10° N
CENTAUR R/B 3.2 05:11:31 10° NW 05:19:13 59° WSW 05:27:19 10° SSE
Cosmos 1844 4.1 05:14:16 12° SW 05:19:24 52° WNW 05:25:01 10° NNE
CZ-2D R/B 3.4 05:16:02 10° N 05:20:00 70° WNW 05:24:00 10° SSW
Cosmos 1626 Rocket 4.0 05:25:22 10° N 05:29:43 67° E 05:34:04 10° SSE
Cosmos 1455 Rocket 3.2 05:25:23 10° SSW 05:29:47 62° W 05:34:13 10° N
Cosmos 1975 3.7 05:26:26 10° S 05:30:19 52° E 05:34:13 10° NNE
Cosmos 2297 4.0 05:25:17 10° SSW 05:30:53 69° ESE 05:36:33 10° NNE
Cosmos 1461 3.2 05:26:12 10° SW 05:30:56 74° WNW 05:35:34 10° NNE
Tiangong 1 2.7 05:32:31 10° WSW 05:34:26 15° SSW 05:36:21 10° S
Cosmos 2278 Rocket 2.5 05:28:53 10° SW 05:34:27 58° WNW 05:40:04 10° NNE
Cosmos 1346 Rocket 4.4 05:31:37 10° N 05:35:29 39° ENE 05:39:17 10° SSE
Meteor 1-5 Rocket 4.4 05:30:07 10° SSW 05:35:59 68° W 05:41:46 10° N
Cosmos 1140 Rocket 4.2 05:32:09 10° NW 05:36:43 33° W 05:41:15 10° SSW
Cosmos 1025 Rocket 4.4 05:35:08 10° NW 05:38:22 21° W 05:41:37 10° SW
Cosmos 1850 Rocket 4.4 05:35:14 10° NNW 05:40:08 41° WSW 05:45:03 10° S
MOZ.5/SAFIR/RUBIN 5/SL-8 3.8 05:35:23 10° S 05:40:09 74° WSW 05:44:58 10° NNW
UNK 3.1 05:33:36 10° WSW 05:40:19 67° NNW 05:42:53 10° NE
Cosmos 1741 Rocket 4.4 05:35:45 10° NNW 05:40:43 43° WSW 05:45:38 10° S
